Chippewa, MI

12:10 AM EST on December 10, 2019 (GMT -0500)
Chippewa County International

Weather History for KCIU - October, 2019

Change the Weather History Date:

Tuesday, October 8, 2019

  Actual Average Record
Temperature  
Mean Temperature 50 °F -  
Max Temperature 64 °F 55 °F 80 °F (2007)
Min Temperature 35 °F 34 °F 20 °F (1980)
Degree Days  
Heating Degree Days 16    
Moisture  
Dew Point 41 °F    
Average Humidity 80    
Maximum Humidity 100    
Minimum Humidity 43    
Precipitation  
Precipitation 0.00 in - - ()
Sea Level Pressure  
Sea Level Pressure 30.23 in    
Wind  
Wind Speed 4 mph ()    
Max Wind Speed 13 mph    
Max Gust Speed 20 mph    
Visibility 9.4 miles    
Events      
Averages and records for this station are not official NWS values.
T = Trace of Precipitation, MM = Missing Value Source: Averaged Metar Reports

Daily Weather History Graph

Daily Weather History Graph

Search for Another Location

Airport or City:

Astronomy

Oct. 08, 2019 Rise Set
Actual Time 7:45 AM EDT 7:04 PM EDT
Civil Twilight 7:15 AM EDT 7:34 PM EDT
Nautical Twilight 6:40 AM EDT 8:09 PM EDT
Astronomical Twilight 6:05 AM EDT 8:44 PM EDT
Moon 5:23 PM EDT (10/8) 2:11 AM EDT (10/8)
Length of Visible Light 12h 19m
Length of Day
11h 19m
Waxing Gibbous, 77% of the Moon is Illuminated
Oct 8
Waxing Gibbous
Oct 13
Full
Oct 21
Last Quarter
Oct 27
New
Nov 4
First Quarter

Hourly Weather History & Observations

Time (EDT) Temp. Windchill Dew Point Humidity Pressure Visibility Wind Dir Wind Speed Gust Speed Precip Events Conditions
12:56 AM 37.9 °F 35.5 °F 37.0 °F 97% 30.20 in 10.0 mi South 3.5 mph - N/A   Clear
1:07 AM 37.4 °F - 37.4 °F 100% 30.19 in 2.5 mi Calm Calm - N/A   Clear
1:14 AM 37.4 °F - 37.4 °F 100% 30.19 in 10.0 mi Calm Calm - N/A   Clear
1:56 AM 39.0 °F 36.8 °F 37.0 °F 93% 30.21 in 10.0 mi South 3.5 mph - N/A   Clear
2:12 AM 35.6 °F - 35.6 °F 100% 30.21 in 2.0 mi Calm Calm - N/A   Clear
2:21 AM 39.2 °F - 35.6 °F 87% 30.21 in 10.0 mi Calm Calm - N/A   Clear
2:56 AM 36.0 °F - 34.0 °F 93% 30.22 in 10.0 mi Calm Calm - N/A   Clear
3:56 AM 37.9 °F 34.4 °F 35.1 °F 89% 30.22 in 10.0 mi SE 4.6 mph - N/A   Clear
4:56 AM 37.9 °F 32.7 °F 37.0 °F 97% 30.22 in 10.0 mi SSE 6.9 mph - N/A   Clear
5:56 AM 39.9 °F 37.8 °F 37.9 °F 93% 30.24 in 10.0 mi SE 3.5 mph - N/A   Clear
6:56 AM 39.0 °F 32.8 °F 37.0 °F 93% 30.25 in 10.0 mi SE 9.2 mph - N/A   Clear
7:56 AM 39.0 °F 35.7 °F 39.0 °F 100% 30.25 in 10.0 mi SE 4.6 mph - N/A   Clear
8:56 AM 45.0 °F 43.5 °F 45.0 °F 100% 30.26 in 10.0 mi SSE 3.5 mph - N/A   Clear
9:56 AM 52.0 °F - 46.9 °F 83% 30.26 in 10.0 mi South 6.9 mph - N/A   Clear
10:56 AM 55.0 °F - 46.9 °F 74% 30.26 in 10.0 mi South 6.9 mph - N/A   Clear
11:56 AM 61.0 °F - 48.0 °F 62% 30.27 in 10.0 mi Variable 4.6 mph - N/A   Clear
12:56 PM 63.0 °F - 45.0 °F 52% 30.27 in 10.0 mi SW 10.4 mph - N/A   Clear
1:56 PM 63.0 °F - 44.1 °F 50% 30.25 in 10.0 mi SSW 12.7 mph 17.3 mph N/A   Partly Cloudy
2:56 PM 64.9 °F - 42.1 °F 43% 30.24 in 10.0 mi SW 10.4 mph 19.6 mph N/A   Mostly Cloudy
3:56 PM 63.0 °F - 42.1 °F 46% 30.23 in 10.0 mi SSW 8.1 mph 18.4 mph N/A   Partly Cloudy
4:56 PM 64.0 °F - 43.0 °F 46% 30.22 in 10.0 mi South 9.2 mph - N/A   Clear
5:56 PM 61.0 °F - 45.0 °F 56% 30.22 in 10.0 mi SSE 11.5 mph - N/A   Mostly Cloudy
6:56 PM 55.9 °F - 43.0 °F 62% 30.22 in 10.0 mi SSE 9.2 mph - N/A   Partly Cloudy
7:56 PM 52.0 °F - 44.1 °F 74% 30.22 in 10.0 mi SE 9.2 mph - N/A   Clear
8:56 PM 51.1 °F - 44.1 °F 77% 30.22 in 10.0 mi SE 11.5 mph - N/A   Clear
9:56 PM 50.0 °F - 45.0 °F 83% 30.22 in 10.0 mi SE 10.4 mph - N/A   Clear
10:56 PM 48.0 °F - 45.0 °F 89% 30.22 in 10.0 mi SE 9.2 mph - N/A   Clear
11:56 PM 46.9 °F - 45.0 °F 93% 30.22 in 10.0 mi SE 9.2 mph - N/A   Clear